Weather in Lovech

Bulgaria     43°08′23″N   24°42′56″E
temp.,
°C
wind,
m/s
gust,
m/s
humid.,
%
clouds,
%
prec.,
mm/h
press.,
hPa
HPBL,
m
24 september, fri
fri2400:00+10sw48525 0.0 1021195
03:00+9sw365696 0.0 1020126
06:00+9sw3361100 0.0 101956
09:00+12s2249100 0.0 1018133
12:00+20w5825100 0.0 10161082
15:00+25wnw9121964 0.0 10131837
18:00+24wnw81322100 0.0 10132169
21:00+20wnw5133086 0.0 1015417
25 september, sat
sat2500:00+17wsw4113764 0.0 1016257
03:00+17wsw5134622 0.0 1017348
06:00+17wsw513495 0.0 1018380
09:00+20w611401 0.0 10191048
12:00+25wnw79350 0.0 10201664
15:00+27nw56300 0.0 10191821
18:00+26nw45310 0.0 10191761
21:00+20w01450 0.0 102111
26 september, sun
sun2600:00+18ssw22510 0.0 102111
03:00+17sw22540 0.0 102113
06:00+16ssw22570 0.0 102111
09:00+20w01460 0.0 1022142
12:00+26n11320 0.0 1021992
15:00+29n22250 0.0 10191790
18:00+29n22240 0.0 10171410
21:00+22ese11376 0.0 101811
27 september, mon
mon2700:00+20s2244100 0.0 101811
03:00+18ssw11495 0.0 101811
06:00+17ssw11535 0.0 101711
09:00+20nne00430 0.0 1018145
12:00+26ne22300 0.0 1017925
15:00+29ne32240 0.0 10151870
18:00+28ne322691 0.0 10141455
21:00+23ene254165 0.1 1015132
28 september, tue
tue2800:00+19wsw1052100 0.1 101611
03:00+20nnw1154100 0.2 101620
06:00+17w2265100 0.0 101735
09:00+17wnw2369100 0.0 1018261
12:00+16w2379100 0.5 1019429
15:00+17wnw3379100 2.3 1019623
18:00+15n1193100 2.3 1019275
21:00+15nne2294100 2.4 1019274